This demonstration page uses our WeatherBlox Daily Observations layout. Learn more.

Hourly Observations for October 7, 2019

Temp ( °F °C ) Dew Point ( °F °C ) Humidity (%) Winds ( mph kmh ) Pressure ( in mb ) Visibility ( mi km ) Precip ( " mm )
12:54 am 00:54 Clear 45 7.2 39 3.9 80 80 SSE 3 6 30.27 1025 10 16.09344 0 0
1:54 am 01:54 Clear 43 6.1 38 3.3 82 82 Calm 30.27 1025 10 16.09344 0 0
2:54 am 02:54 Clear 41 5 37 2.8 86 86 Calm 30.27 1025 10 16.09344 0 0
3:54 am 03:54 Clear 41 5 36 2.2 82 82 Calm 30.27 1025 10 16.09344 0 0
4:54 am 04:54 Clear 39 3.9 35 1.7 86 86 Calm 30.27 1025 10 16.09344 0 0
5:54 am 05:54 Clear 38 3.3 35 1.7 89 89 Calm 30.27 1025 10 16.09344 0 0
6:54 am 06:54 Clear 40 4.4 36 2.2 86 86 Calm 30.27 1025 10 16.09344 0 0
7:54 am 07:54 Sunny 40 4.4 37 2.8 89 89 Calm 30.3 1026 10 16.09344 0 0
8:54 am 08:54 Sunny 45 7.2 40 4.4 83 83 Calm 30.3 1026 10 16.09344 0 0
9:54 am 09:54 Sunny 52 11.1 42 5.6 69 69 SSW 5 7 30.3 1026 10 16.09344 0 0
10:54 am 10:54 Sunny 60 15.6 44 6.7 56 56 Calm 30.3 1026 10 16.09344 0 0
11:54 am 11:54 Sunny 68 20 43 6.1 40 40 WSW 7 11 30.24 1024 10 16.09344 0 0
12:54 pm 12:54 Sunny 72 22.2 39 3.9 30 30 SW 14 22 30.21 1023 10 16.09344 0 0
1:54 pm 13:54 Sunny 73 22.8 36 2.2 26 26 SW 13 20 30.18 1022 10 16.09344 0 0
2:54 pm 14:54 Sunny 74 23.3 35 1.7 24 24 SW 12 19 30.15 1021 10 16.09344 0 0
3:54 pm 15:54 Sunny 74 23.3 36 2.2 25 25 SSW 15 24 30.15 1021 10 16.09344 0 0
4:54 pm 16:54 Sunny 73 22.8 36 2.2 26 26 SSW 15 24 30.12 1020 10 16.09344 0 0
5:54 pm 17:54 Sunny 71 21.7 36 2.2 28 28 S 14 22 30.12 1020 10 16.09344 0 0
6:54 pm 18:54 Sunny 60 15.6 41 5 50 50 S 9 15 30.12 1020 10 16.09344 0 0
7:54 pm 19:54 Clear 55 12.8 41 5 59 59 S 8 13 30.12 1020 10 16.09344 0 0
8:54 pm 20:54 Clear 52 11.1 40 4.4 64 64 S 9 15 30.12 1020 10 16.09344 0 0
9:54 pm 21:54 Clear 53 11.7 41 5 64 64 S 8 13 30.12 1020 10 16.09344 0 0
10:54 pm 22:54 Clear 48 8.9 40 4.4 74 74 S 8 13 30.12 1020 10 16.09344 0 0
11:54 pm 23:54 Clear 50 10 40 4.4 68 68 S 6 9 30.09 1019 10 16.09344 0 0

Powered by AerisWeather